Highlandville, IA

7:13 PM CDT on August 28, 2016 (GMT -0500)
Decorah Municipal

Weather History for KDEH - December, 2012

Change the Weather History Date:

Monday, December 31, 2012

  Actual Average Record
Temperature  
Mean Temperature 16 °F -  
Max Temperature 26 °F 23 °F 56 °F (1965)
Min Temperature 5 °F 8 °F -24 °F (1976)
Degree Days  
Heating Degree Days 50    
Moisture  
Dew Point 7 °F    
Average Humidity 72    
Maximum Humidity 86    
Minimum Humidity 58    
Precipitation  
Precipitation 0.00 in - - ()
Sea Level Pressure  
Sea Level Pressure 30.08 in    
Wind  
Wind Speed 9 mph (NW)    
Max Wind Speed 20 mph    
Max Gust Speed 21 mph    
Visibility 10 miles    
Events Snow    
Averages and records for this station are not official NWS values.
T = Trace of Precipitation, MM = Missing Value Source: NWS Daily Summary

Daily Weather History Graph

Daily Weather History Graph

Search for Another Location

Airport or City:

Trip Planner

Search our weather history database for the weather conditions in past years. The results will help you decide how hot, cold, wet, or windy it might be!

Date:

Astronomy

Dec. 31, 2012 Rise Set
Actual Time 7:39 AM CST 4:41 PM CST
Civil Twilight 7:06 AM CST 5:13 PM CST
Nautical Twilight 6:30 AM CST 5:49 PM CST
Astronomical Twilight 5:56 AM CST 6:24 PM CST
Moon 8:18 PM CST (12/31) 9:15 AM CST (12/31)
Length of Visible Light 10h 07m
Length of Day
9h 02m
Waning Gibbous, 90% of the Moon is Illuminated
Dec 31
Waning Gibbous
Jan 4
Last Quarter
Jan 11
New
Jan 18
First Quarter
Jan 26
Full

Hourly Weather History & Observations

Time (CST) Temp. Windchill Dew Point Humidity Pressure Visibility Wind Dir Wind Speed Gust Speed Precip Events Conditions
12:15 AM 26.6 °F 17.5 °F 21.2 °F 80% 29.95 in 10.0 mi West 9.2 mph 17.3 mph N/A   Partly Cloudy
12:35 AM 26.6 °F 16.8 °F 21.2 °F 80% 29.94 in 10.0 mi West 10.4 mph 20.7 mph N/A   Partly Cloudy
12:55 AM 24.8 °F 17.9 °F 19.4 °F 80% 29.94 in 10.0 mi Variable 5.8 mph 16.1 mph N/A   Partly Cloudy
1:15 AM 23.0 °F 15.8 °F 19.4 °F 86% 29.94 in 10.0 mi Variable 5.8 mph - N/A   Clear
1:55 AM 21.2 °F 12.6 °F 17.6 °F 86% 29.95 in 10.0 mi WNW 6.9 mph - N/A   Clear
2:15 AM 21.2 °F 13.6 °F 15.8 °F 80% 29.97 in 10.0 mi Variable 5.8 mph 12.7 mph N/A   Clear
2:35 AM 19.4 °F 9.5 °F 14.0 °F 80% 29.98 in 10.0 mi WNW 8.1 mph - N/A   Clear
2:55 AM 19.4 °F 11.5 °F 14.0 °F 80% 29.99 in 10.0 mi Variable 5.8 mph - N/A   Clear
3:15 AM 19.4 °F 11.5 °F 14.0 °F 80% 29.99 in 10.0 mi West 5.8 mph - N/A   Clear
3:35 AM 17.6 °F 9.3 °F 12.2 °F 79% 30.00 in 10.0 mi West 5.8 mph - N/A   Clear
3:55 AM 17.6 °F 8.2 °F 12.2 °F 79% 30.00 in 10.0 mi West 6.9 mph - N/A   Clear
4:15 AM 17.6 °F 8.2 °F 12.2 °F 79% 30.01 in 10.0 mi West 6.9 mph - N/A   Clear
4:35 AM 15.8 °F 6.1 °F 12.2 °F 86% 30.02 in 10.0 mi Variable 6.9 mph - N/A   Clear
4:55 AM 15.8 °F 4.2 °F 10.4 °F 79% 30.03 in 10.0 mi WNW 9.2 mph - N/A   Clear
5:15 AM 15.8 °F 5.1 °F 10.4 °F 79% 30.03 in 10.0 mi WNW 8.1 mph - N/A   Scattered Clouds
5:35 AM 15.8 °F 5.1 °F 10.4 °F 79% 30.03 in 10.0 mi NW 8.1 mph 13.8 mph N/A   Mostly Cloudy
5:55 AM 15.8 °F 3.4 °F 12.2 °F 86% 30.05 in 10.0 mi NW 10.4 mph - N/A   Overcast
6:15 AM 14.0 °F 1.2 °F 10.4 °F 86% 30.05 in 10.0 mi NW 10.4 mph - N/A   Overcast
6:55 AM 14.0 °F 2.0 °F 10.4 °F 86% 30.05 in 10.0 mi NW 9.2 mph 16.1 mph N/A   Overcast
7:15 AM 14.0 °F 2.0 °F 8.6 °F 79% 30.06 in 10.0 mi NW 9.2 mph - N/A Snow Light Snow
7:35 AM 14.0 °F 2.9 °F 8.6 °F 79% 30.06 in 8.0 mi NW 8.1 mph - N/A Snow Light Snow
7:55 AM 14.0 °F 0.5 °F 8.6 °F 79% 30.06 in 8.0 mi NNW 11.5 mph - N/A Snow Light Snow
8:15 AM 14.0 °F -0.2 °F 8.6 °F 79% 30.06 in 7.0 mi NW 12.7 mph 19.6 mph N/A Snow Light Snow
8:35 AM 14.0 °F -0.2 °F 10.4 °F 86% 30.07 in 8.0 mi NNW 12.7 mph - N/A Snow Light Snow
8:55 AM 14.0 °F -0.2 °F 10.4 °F 86% 30.06 in 7.0 mi NNW 12.7 mph - N/A Snow Light Snow
9:15 AM 15.8 °F 2.1 °F 10.4 °F 79% 30.07 in 6.0 mi NNW 12.7 mph - N/A Snow Light Snow
9:35 AM 15.8 °F 2.1 °F 10.4 °F 79% 30.08 in 7.0 mi NNW 12.7 mph 19.6 mph N/A Snow Light Snow
9:55 AM 15.8 °F 1.4 °F 10.4 °F 79% 30.09 in 9.0 mi NNW 13.8 mph - N/A Snow Light Snow
10:15 AM 15.8 °F 0.3 °F 10.4 °F 79% 30.10 in 10.0 mi NNW 16.1 mph - N/A   Mostly Cloudy
10:35 AM 15.8 °F -0.2 °F 8.6 °F 73% 30.10 in 10.0 mi NNW 17.3 mph - N/A   Mostly Cloudy
10:55 AM 15.8 °F 0.3 °F 6.8 °F 68% 30.09 in 10.0 mi NW 16.1 mph - N/A   Overcast
11:15 AM 14.0 °F -3.4 °F 6.8 °F 73% 30.09 in 10.0 mi NNW 19.6 mph - N/A   Scattered Clouds
11:35 AM 14.0 °F -2.5 °F 6.8 °F 73% 30.09 in 10.0 mi NNW 17.3 mph - N/A   Clear
11:55 AM 15.8 °F -1.1 °F 6.8 °F 68% 30.08 in 10.0 mi NNW 19.6 mph - N/A   Clear
12:15 PM 15.8 °F 1.4 °F 6.8 °F 68% 30.08 in 10.0 mi NNW 13.8 mph 20.7 mph N/A   Clear
12:35 PM 15.8 °F 2.1 °F 5.0 °F 62% 30.08 in 10.0 mi NNW 12.7 mph - N/A   Clear
12:55 PM 15.8 °F 2.1 °F 5.0 °F 62% 30.08 in 10.0 mi NNW 12.7 mph - N/A   Clear
1:15 PM 15.8 °F 2.7 °F 5.0 °F 62% 30.08 in 10.0 mi NNW 11.5 mph - N/A   Clear
1:35 PM 15.8 °F 3.4 °F 5.0 °F 62% 30.08 in 10.0 mi NNW 10.4 mph - N/A   Clear
1:55 PM 17.6 °F 8.2 °F 5.0 °F 58% 30.08 in 10.0 mi NNW 6.9 mph - N/A   Clear
2:15 PM 17.6 °F 7.3 °F 5.0 °F 58% 30.09 in 10.0 mi NW 8.1 mph - N/A   Clear
2:35 PM 17.6 °F 5.7 °F 5.0 °F 58% 30.09 in 10.0 mi NW 10.4 mph - N/A   Clear
2:55 PM 17.6 °F 7.3 °F 5.0 °F 58% 30.09 in 10.0 mi WNW 8.1 mph - N/A   Clear
3:15 PM 17.6 °F 5.0 °F 5.0 °F 58% 30.09 in 10.0 mi NW 11.5 mph - N/A   Clear
3:35 PM 17.6 °F 6.4 °F 5.0 °F 58% 30.10 in 10.0 mi NW 9.2 mph - N/A   Clear
3:55 PM 15.8 °F 4.2 °F 5.0 °F 62% 30.10 in 10.0 mi NW 9.2 mph 15.0 mph N/A   Clear
4:35 PM 14.0 °F 5.1 °F 5.0 °F 67% 30.10 in 10.0 mi NW 5.8 mph - N/A   Clear
4:55 PM 14.0 °F 2.9 °F 3.2 °F 62% 30.09 in 10.0 mi NNW 8.1 mph - N/A   Clear
5:15 PM 12.2 °F 2.9 °F 3.2 °F 67% 30.10 in 10.0 mi NW 5.8 mph - N/A   Clear
5:35 PM 12.2 °F -0.2 °F 3.2 °F 67% 30.11 in 10.0 mi NNW 9.2 mph - N/A   Clear
6:15 PM 10.4 °F -3.3 °F 1.4 °F 67% 30.12 in 10.0 mi NNW 10.4 mph - N/A   Clear
6:35 PM 10.4 °F -2.4 °F 1.4 °F 67% 30.13 in 10.0 mi NNW 9.2 mph - N/A   Clear
6:55 PM 8.6 °F -5.5 °F 1.4 °F 73% 30.13 in 10.0 mi NNW 10.4 mph - N/A   Clear
7:15 PM 8.6 °F -5.5 °F -0.4 °F 67% 30.14 in 10.0 mi NNW 10.4 mph - N/A   Clear
7:35 PM 8.6 °F -4.7 °F -0.4 °F 67% 30.14 in 10.0 mi NNW 9.2 mph - N/A   Clear
7:55 PM 8.6 °F -4.7 °F -0.4 °F 67% 30.14 in 10.0 mi NNW 9.2 mph - N/A   Clear
8:15 PM 8.6 °F -3.7 °F -0.4 °F 67% 30.15 in 10.0 mi NNW 8.1 mph - N/A   Clear
8:35 PM 6.8 °F -5.9 °F -2.2 °F 67% 30.15 in 10.0 mi NNW 8.1 mph - N/A   Clear
8:55 PM 6.8 °F -5.9 °F -2.2 °F 67% 30.16 in 10.0 mi NNW 8.1 mph - N/A   Clear
9:15 PM 6.8 °F -4.8 °F -2.2 °F 67% 30.16 in 10.0 mi NNW 6.9 mph - N/A   Clear
9:35 PM 6.8 °F -5.9 °F -2.2 °F 67% 30.17 in 10.0 mi NNW 8.1 mph - N/A   Clear
9:55 PM 6.8 °F -4.8 °F -2.2 °F 67% 30.17 in 10.0 mi NW 6.9 mph - N/A   Clear
10:15 PM 5.0 °F -8.1 °F -2.2 °F 72% 30.18 in 10.0 mi NNW 8.1 mph - N/A   Clear
10:35 PM 5.0 °F -6.9 °F -4.0 °F 66% 30.19 in 10.0 mi NNW 6.9 mph - N/A   Clear
10:55 PM 5.0 °F -10.0 °F -2.2 °F 72% 30.19 in 10.0 mi NNW 10.4 mph - N/A   Clear
11:15 PM 5.0 °F -8.1 °F -2.2 °F 72% 30.19 in 10.0 mi NNW 8.1 mph - N/A   Clear
11:35 PM 5.0 °F -8.1 °F -4.0 °F 66% 30.19 in 10.0 mi NNW 8.1 mph - N/A   Clear